Regional Weather Roundup
Issued by NWS Goodland, KS

Home | Current Version | Previous Version | Graphics & Text | Print | Product List | Glossary On
Versions: 1 2 3 4 5 6 7 8 9 10 11 12 13 14 15 16 17 18 19 20 21 22 23 24 25 26 27 28 29 30 31 32 33 34 35 36 37 38 39 40 41 42 43 44 45 46 47 48 49 50
000
ASUS43 KGLD 272059
RWRGLD

GOODLAND FORECAST AREA HOURLY WEATHER ROUNDUP
NATIONAL WEATHER SERVICE GOODLAND KS
300 PM MDT MON JUL 27 2015

...OFFICIAL OBSERVATIONS...

CITY           SKY/WX    TMP DP  RH WIND       PRES   REMARKS
GOODLAND KS    SUNNY     91  68  46 S21G29    29.84F
HILL CITY KS     N/A    N/A N/A N/A MISG        N/A
IMPERIAL NEB   SUNNY     91  67  44 S20G29    29.79F
MCCOOK NEB     MOSUNNY   94  70  45 S20G26    29.80F HX 100
AKRON CO         N/A    N/A N/A N/A MISG      29.84F
BURLINGTON CO  PTSUNNY   90  64  42 S20G25    29.87F
LIMON CO       MOSUNNY   88  49  25 SW10      29.91F
$$

...UNOFFICIAL OBSERVATIONS...

CITY           SKY/WX    TMP DP  RH WIND       PRES   REMARKS
COLBY KS       SUNNY     91  73  55 S16G24    29.85F HX 100
LENORA KS        N/A     92  32  12 MISG        N/A
NORTON KS      SUNNY     91  66  43 SE13G18   29.81F
SHARON SPRINGS   N/A     90  72  55 N20G28      N/A
KIT CARSON CO    N/A     95  55  25 MISG        N/A
$$



USA.gov is the U.S. government's official web portal to all federal, state and local government web resources and services.